STARLINK-32901, 62895

Orbit data source: Space-Track

STARLINK-32901, 62895 is a payload satellite owned by SpaceX/Seattle (US) in LEO that was launched on Tue, 04 Feb 2025 UTC via an FALCON 9 launch vehicle from the Air Force Eastern Test Range (AFETR). Payload-class satellites include a variety of spacecraft equipped with specific instruments for various scientific and technological missions. These include communications satellites like Starlink; space stations such as the ISS; scientific satellites like the Hubble; Earth observation satellites from companies like Planet Labs, Umbra, and HawkEye 360; GPS; miniature CubeSats for education and research; and military/defense satellites.

Loading next visibility...
Identifier
62895, 2025-024S
Orbit
LEO
Country
Flag of USUS
Related business
Manufacturer
SpaceX/Seattle
Mission
Operational spacecraft
Bus & Motor
STARLINK V2M, Unknown motor
Mass
730 kg wet, ~700 kg dry
Launch date (UTC)
2025-02-04 (9 months ago)
Launch vehicle
FALCON 9
Launch site
Air Force Eastern Test Range (AFETR)
Object type
Payload
Rocket body
Debris
Shape & HBR
Unknown shape, 17.7 m
Radar Cross Section
Large (>1 m²)

Expand to show TLE details & history
Last TLE update: 1 day ago

TLE from 1 day ago
0 STARLINK-32901
1 62895U 25024S   25306.35909442  .00013588  00000-0  50229-3 0  9991
2 62895  43.0056 324.3461 0000297 216.1123 143.9708 15.27584960 42798
Epoch: 2025-11-02T08:37Z
TLE epoch observation values (Epoch: 2025-11-02T08:37:05.757Z)
Latitude
-0.00008°
Longitude
153.19607°
Altitude
482.975 km
Speed
7.626 km/s
True Right ascension
21h 37m 23s
True Declination
0° 00' 00"
Sunlit
Object was in daylight at epoch
Visualization orbit readout
Latitude
Unknown
Longitude
Unknown
Altitude
Unknown
Speed
Unknown
Apparent Right ascension
Unknown
Apparent Declination
Unknown
Sunlit
N/A
Visualization observer readout
Local Sidereal Time
09:51:52
Azimuth
Unknown
Elevation
Unknown
Doppler factor
Unknown
Orbital elements
Apogee altitude
485.182 km
Perigee altitude
484.775 km
Semi-major axis
6,863.115 km
Eccentricity
0.00003
Inclination
43.0056°
RAAN
324.3461°
Arg. of periapsis
216.1123°
True anomaly
143.9728°
Mean anomaly
143.9708°
Eccentric anomaly
143.9718°
Mean motion
3.81734 °/min
Orbital period
94.31 mins
BSTAR
0.00050229
Loading maneuver chart data...
Computing Atmospheric mass density...
Loading historical data...
Loading historical data...
Loading historical data...
Loading historical data...
Loading historical data...
Loading historical data...
Loading historical data...

Documentation

Showing up to 5 results
|